{"data":{"norad_id":66561,"epoch":"2026-05-24T18:08:05.891136Z","epoch_age_seconds":96313,"freshness":"FRESH","line1":"1 66561U 25268E   26144.75562374  .00015576  00000+0  57430-3 0  9998","line2":"2 66561  43.0035 277.4367 0001999 272.2753  87.7870 15.27582451 29595","mean_motion":15.27582451,"eccentricity":0.0001999,"inclination_deg":43.0035,"raan_deg":277.4367,"arg_perigee_deg":272.2753,"mean_anomaly_deg":87.787,"bstar":0.0005743,"rev_number":2959,"period_min":94.266597463026,"perigee_km":481.67020724022,"apogee_km":484.41330650722,"semimajor_km":6861.1787568737,"source":"CELESTRAK","updated_at":"2026-05-25T13:38:21.256790Z"}}